Home > Weather > Visalia > Past weeks

Flag for USA Weather for the Past 2 Weeks in Visalia, California, USA

Now
80 °F

Sunny.


Feels Like: 79 °F
Forecast: 54 / 72 °F
Wind: No wind

Location: Visalia Municipal

Current Time: May 4, 2016 at 6:43:57 PM

Latest Report: May 4, 2016 at 5:56 PM


Visibility: 10 mi

Pressure: 29.79 "Hg

Humidity: 32%

Dew Point: 48 °F

Location of VisaliaLocation

Historic Weather in Visalia — Graph

°F

Visalia Temperature Yesterday

Maximum temperature yesterday: 88 °F (at 4:56 PM)
Minimum temperature yesterday: 54 °F (at 4:56 AM)
Average temperature yesterday: 72 °F

High & Low Weather Summary for the Past Weeks

 TemperatureHumidityPressure
High89 °F (Apr 19, 4:56 PM)93% (Apr 22, 4:56 AM)30.22 "Hg (Apr 22, 4:56 AM)
Low45 °F (Apr 26, 4:56 AM)18% (Apr 19, 5:56 PM)29.78 "Hg (Apr 27, 5:56 PM)
Average64 °F54%29.94 "Hg
* Reported Apr 19 4:56 PM — May 4 4:56 PM, Visalia, Weather by CustomWeather, © 2016

Note: Actual official high and low records may vary slightly from our data, if they occured in-between our weather recording intervals... More about our weather records

Advertising

Visalia Weather History for the Previous 24 Hours

Scroll right to see more
 ConditionsComfort  
Time TempWeatherWind HumidityBarometerVisibility
4:56 PM
Wed, May 4
80 °FSunny.8 mph35%29.80 "Hg10 mi
3:56 PM80 °FSunny.10 mph38%29.81 "Hg10 mi
2:56 PM82 °FSunny.8 mph34%29.81 "Hg10 mi
1:56 PM80 °FSunny.10 mph36%29.83 "Hg10 mi
11:56 AM78 °FSunny.3 mph42%29.85 "Hg10 mi
10:56 AM73 °FSunny.No wind53%29.87 "Hg10 mi
9:56 AM70 °FSunny.5 mph61%29.86 "Hg10 mi
8:56 AM68 °FSunny.8 mph65%29.86 "Hg10 mi
7:56 AM64 °FSunny.5 mph70%29.85 "Hg10 mi
6:56 AM61 °FClear.3 mph75%29.84 "Hg10 mi
5:56 AM60 °FClear.5 mph83%29.84 "Hg10 mi
4:56 AM60 °FClear.5 mph83%29.84 "Hg10 mi
3:56 AM61 °FClear.5 mph78%29.84 "Hg10 mi
2:56 AM67 °FClear.5 mph66%29.85 "Hg10 mi
1:56 AM64 °FClear.6 mph75%29.87 "Hg10 mi
12:56 AM67 °FClear.3 mph68%29.88 "Hg10 mi
11:56 PM
Tue, May 3
69 °FClear.9 mph61%29.86 "Hg10 mi
10:56 PM68 °FClear.7 mph57%29.86 "Hg10 mi
9:56 PM77 °FClear.7 mph35%29.86 "Hg10 mi
8:56 PM76 °FClear.3 mph35%29.86 "Hg10 mi
7:56 PM79 °FSunny.7 mph31%29.84 "Hg10 mi
6:56 PM85 °FSunny.10 mph27%29.84 "Hg10 mi
Weather by CustomWeather, © 2016

See weather overviewHow to use our weather pages